www.pogodaiklimat.ru

Погода и климат >> Архив погоды >> Финляндия >> Наккала


ПОГОДА в Наккала

  • Прогноз погоды в Наккала
  • Монитор погоды в Наккала

АРХИВ ПОГОДЫ в Наккала

Время (UTC), дата Ветер
(напр.,м/с)
 
Видим.   Явления Облачность Т
(С)
Тd
(С)
f
(%)
Тe
(С)
Тes
(С)
Комфортность P
(гПа)
Po
(гПа)
Тmin
(С)
Tmax
(С)
R
(мм)
R24
(мм)
S
(см)
10 12.06 ЮВ 2 45 км 1/1 1000 м
[]
+9.6 -0.6 49 +8 +18 опасность
простуды
1029.5 983.9
11 12.06 Ю 2 35 км 1/1 1000 м
[]
+10.0 -0.9 47 +9 +19 опасность
простуды
1029.1 983.5
12 12.06 ЮВ 3-5
{5}
40 км ясно +10.4 -0.4 47 +9 +17 1028.4 982.9
13 12.06 ЮВ 2-4
{4}
50 км 3/1 1500 м
[]
+11.2 -0.1 46 +10 +18 1027.9 982.6
14 12.06 ЮВ 2 50 км 1/1 1500 м
[]
+11.3 -1.0 42 +11 +17 1027.6 982.3
15 12.06 ЮВ 3-4
{4}
45 км 8/6 1500 м
[]
+11.8 +0.1 44 +11 +12 1026.9 981.7
16 12.06 Ю 2-4
{5}
50 км 5/0 1500 м
[]
+12.0 +0.1 44 +11 +13 1026.5 981.3
17 12.06 Ю 4-6
{6}
50 км 1/0
[]
+12.4 +0.4 44 +11 +12 1025.9 980.8
18 12.06 ЮВ 4-6
{6}
50 км ясно +11.7 +1.0 48 +10 +11 1026.0 980.8 +5.3 +12.8
19 12.06 ЮВ 5 50 км 4/4
[]
+11.3 +1.2 50 +9 +9 1025.9 980.6
20 12.06 ЮВ 4-5
{8}
50 км 3/0 1500 м
[]
+10.7 +2.2 56 +9 +9 1026.1 980.8
21 12.06 Ю 4-6
{6}
50 км 9/9
[]
+9.8 +2.4 60 +7 +7 1026.3 980.8
22 12.06 Ю 3 50 км 10/10
[]
+9.1 +2.6 64 +7 +7 1026.5 980.9
23 12.06 Ю 3 50 км 9/5
[]
+8.2 +2.9 69 +6 +6 1026.4 980.7
00 13.06 Ю 4-4
{5}
50 км 10/10
[]
+7.6 +2.6 71 +4 +4 1026.4 980.5
01 13.06 Ю 4-5
{6}
50 км 10/0
[]
+7.5 +2.9 73 +4 +4 1026.4 980.5
02 13.06 Ю 5-7
{7}
50 км 10/0
[]
+7.1 +3.2 76 +3 +3 1026.5 980.5
03 13.06 Ю 4-7
{7}
50 км 5/5
[]
+8.0 +2.5 68 +5 +5 1026.3 980.5
04 13.06 Ю 4 50 км 4/4
[]
+9.4 +2.3 61 +7 +8 1025.9 980.4
05 13.06 Ю 4-6
{6}
50 км 1/1
[]
+10.5 +1.9 55 +8 +11 1025.8 980.4
06 13.06 Ю 4-7
{8}
45 км ясно +12.4 +1.8 48 +11 +15 1025.2 980.1 +7.0 +12.4
07 13.06 Ю 5-7
{8}
40 км ясно +13.3 +1.6 45 +12 +16 1024.9 980.0
08 13.06 Ю 6-9
{9}
45 км ясно +14.2 +1.6 42 +13 +16 1024.6 979.9
09 13.06 ЮЗ 5-9
{9}
30 км 3/3 1500 м
[]
+16.0 +1.3 37 +15 +19 1024.2 979.8
10 13.06 ЮЗ 4-6
{9}
35 км 3/0 1500 м
[]
+13.8 0.0 39 +13 +20 1024.3 979.5
11 13.06 ЮЗ 3 45 км 1/1 1500 м
[]
+15.1 +0.9 38 +15 +23 1024.0 979.4
12 13.06 ЮЗ 4-6
{8}
50 км 3/3 2000 м
[]
+15.3 -0.3 34 +15 +19 1023.6 979.1
13 13.06 Ю 3 45 км 9/9 2000 м
[]
+16.1 -0.2 33 +16 +17 1023.2 978.8
14 13.06 Ю 4-5
{7}
50 км 5/5 2000 м
[]
+16.5 +0.9 35 +16 +18 1022.8 978.5
15 13.06 З 2-5
{6}
45 км 1/1 2000 м
[]
+16.8 +0.1 32 +17 +22 1022.2 978.0
16 13.06 ЮВ 1 50 км ясно +16.1 +0.2 34 +17 +21 1022.0 977.7
17 13.06 Ю 2-4
{6}
50 км ясно +16.0 +1.1 36 +16 +18 1021.7 977.4
18 13.06 Ю 2-3
{5}
50 км 9/9
[]
+14.6 +0.5 38 +15 +15 1021.7 977.2 +12.4 +17.7
19 13.06 ЮЗ 2 50 км ясно +14.2 +0.9 40 +14 +15 1021.6 976.9
20 13.06 ЮЗ 4 50 км 1/1 2000 м
[]
+13.1 +1.9 47 +12 +12 1021.7 976.9
21 13.06 ЮЗ 4-6
{7}
50 км ясно +12.4 +2.0 49 +11 +11 1021.8 976.9
22 13.06 З 1 50 км ясно +9.7 +3.4 65 +9 +9 1022.6 977.2
23 13.06 Ю 1-2
{2}
50 км ясно +7.3 +5.1 86 +6 +6 1023.0 977.3
00 14.06 СЗ 1-1
{3}
50 км ясно +7.1 +4.7 85 +6 +6 1023.0 977.2
01 14.06 С 2 50 км ясно +6.6 +4.1 84 +4 +5 1022.7 976.8
02 14.06 С 3 50 км ясно +7.7 +4.3 79 +5 +5 1022.1 976.4
03 14.06 С 3-5
{6}
50 км ясно +9.4 +4.5 71 +7 +8 1021.3 975.9
04 14.06 С 3 50 км ясно +10.5 +4.7 67 +9 +11 1021.1 975.9
05 14.06 СВ 1-3
{3}
45 км ясно +11.9 +4.5 60 +12 +17 1020.4 975.5
06 14.06 З 1-2
{3}
45 км ясно +14.2 +4.7 53 +15 +21 1019.3 974.8 +6.1 +14.6
07 14.06 З 2-5
{5}
40 км ясно +15.4 +4.1 47 +15 +23 1018.9 974.6
08 14.06 СЗ 3 35 км ясно +17.3 +3.9 41 +17 +25 1018.3 974.3
09 14.06 С 3-6
{7}
35 км ясно +17.9 +3.6 39 +18 +27 1017.6 973.7
10 14.06 СЗ 3 40 км ясно +18.4 +3.5 37 +19 +28 1017.2 973.4
11 14.06 СЗ 2 30 км 1/1 1500 м
[]
+18.9 +3.7 36 +20 +30 1016.6 972.9
12 14.06 С 4-7
{8}
45 км ясно +19.8 +4.8 37 +20 +27 1015.8 972.3
13 14.06 С 6-9
{9}
45 км ясно +19.8 +3.2 33 +20 +23 1015.6 972.1
14 14.06 С 6 45 км ясно +18.1 -0.2 29 +18 +20 1015.8 972.1
15 14.06 С 6-9
{10}
45 км ясно +16.9 -1.7 28 +16 +18 1015.7 971.8
16 14.06 С 6 50 км ясно +16.1 -3.4 26 +15 +17 1016.0 971.9
17 14.06 С 7 50 км ясно +14.3 -4.1 28 +13 +13 1016.6 972.2
18 14.06 С 5-9
{12}
50 км ясно +13.0 -2.9 33 +11 +12 1016.9 972.3 +12.9 +20.4
19 14.06 С 5 50 км ясно +12.1 -1.0 40 +10 +10 1017.1 972.4
20 14.06 СВ 5 50 км ясно +10.2 -0.2 48 +8 +8 1017.7 972.6
21 14.06 СВ 4-6
{8}
50 км ясно +8.0 +0.7 60 +5 +5 1018.5 973.1
22 14.06 С 3-5
{6}
50 км ясно +6.4 +1.2 69 +4 +4 1019.0 973.3
23 14.06 С 2 50 км ясно +4.6 +1.7 81 +2 +2 1019.5 973.5
00 15.06 С 1-1
{5}
45 км ясно +4.2 +2.4 88 +3 +3 1019.6 973.5
01 15.06 СВ 2 40 км ясно +4.8 +2.4 84 +2 +2 1019.4 973.4
02 15.06 СВ 2-3
{4}
45 км ясно +5.2 +2.1 80 +3 +3 1019.4 973.5
03 15.06 СВ 2-4
{4}
50 км ясно +6.0 +2.0 75 +4 +5 1019.1 973.3
04 15.06 С 2 45 км ясно +6.7 +1.8 71 +5 +7 1019.0 973.3
05 15.06 С 1 45 км ясно +8.3 +2.5 67 +8 +12 1018.2 972.9
06 15.06 СЗ 2-3
{3}
40 км ясно +10.5 +2.3 57 +9 +15 1017.6 972.6 +3.9 +13.0
07 15.06 СЗ 2-4
{5}
45 км ясно +12.0 +2.4 52 +11 +19 1017.2 972.5
08 15.06 З 1 45 км ясно +13.7 +1.3 43 +14 +25 опасность
простуды
1016.7 972.2
09 15.06 З 2-5
{5}
45 км ясно +14.9 +2.7 44 +15 +25 1016.0 971.8
10 15.06 З 2-5
{5}
40 км ясно +17.3 +3.5 40 +18 +29 1015.3 971.4
11 15.06 СЗ 3 35 км ясно +18.2 +1.8 33 +18 +28 1014.8 971.0
12 15.06 З 3-7
{7}
40 км ясно +19.5 +1.6 30 +20 +28 1013.9 970.4
13 15.06 СЗ 3 45 км ясно +20.7 +1.0 27 +21 +29 комфорт 1013.2 970.0
14 15.06 СЗ 3-7
{8}
40 км ясно +21.2 +0.8 26 +21 +27 комфорт 1012.7 969.5
15 15.06 С 4-7
{7}
45 км ясно +20.3 +1.3 28 +21 +24 комфорт 1012.4 969.0
16 15.06 С 4 50 км ясно +19.8 +0.9 28 +20 +22 1012.4 969.0
17 15.06 С 4 45 км ясно +19.4 -1.0 25 +19 +21 1012.1 968.7
18 15.06 С 5-7
{8}
50 км ясно +17.9 -2.0 26 +18 +18 1011.9 968.3 +10.1 +21.2
19 15.06 С 3 50 км ясно +17.1 -0.7 30 +17 +18 1012.0 968.2
20 15.06 С 5 50 км ясно +15.1 -1.7 31 +14 +14 1012.1 968.1
21 15.06 С 3-4
{5}
50 км ясно +12.2 0.0 43 +11 +11 1012.8 968.3
22 15.06 С 3 50 км ясно +11.5 +1.5 50 +10 +10 1013.2 968.5
23 15.06 С 3-4
{5}
50 км ясно +9.2 +2.8 64 +7 +7 1013.6 968.5
00 16.06 С 1-2
{4}
50 км ясно +8.3 +3.2 70 +8 +8 1013.5 968.4
01 16.06 СЗ 2 50 км ясно +9.5 +2.7 63 +8 +8 1013.3 968.4
02 16.06 СЗ 2 45 км ясно +9.7 +2.5 61 +8 +9 1013.3 968.4
03 16.06 С 4-6
{6}
50 км ясно +11.1 +1.8 53 +9 +10 1012.9 968.2
04 16.06 С 4 45 км ясно +11.6 +2.3 53 +10 +11 1012.8 968.2
05 16.06 С 4-7
{7}
45 км ясно +12.3 +2.5 51 +11 +13 1012.8 968.3
06 16.06 С 4-7
{8}
45 км ясно +12.4 +1.4 47 +11 +15 1013.2 968.6 +7.8 +18.1
07 16.06 С 4-6
{9}
45 км ясно +13.1 +2.1 47 +12 +17 1013.4 968.9
08 16.06 С 4 40 км ясно +13.6 +2.4 47 +12 +18 1013.2 968.9
09 16.06 С 4-8
{8}
45 км ясно +13.8 +0.7 41 +13 +20 1013.3 968.9
10 16.06 С 4 45 км ясно +14.9 +1.2 39 +14 +21 1012.8 968.7
11 16.06 С 4 40 км ясно +15.2 -0.1 35 +14 +22 1012.7 968.6
12 16.06 С 5-8
{8}
35 км ясно +16.0 +0.3 34 +15 +21 1012.3 968.4
13 16.06 С 4 35 км ясно +15.6 -0.5 33 +15 +21 1012.4 968.4
14 16.06 С 5-8
{9}
45 км ясно +16.0 +0.5 35 +15 +19 1012.1 968.2
15 16.06 С 5-9
{10}
45 км ясно +15.6 +1.8 39 +15 +17 1011.9 968.0
16 16.06 С 4-6
{8}
50 км ясно +15.0 +1.8 41 +14 +17 1012.1 968.1
17 16.06 С 4 50 км ясно +14.6 +1.6 41 +14 +15 1012.0 967.8
18 16.06 СВ 4-6
{6}
50 км ясно +13.4 +1.5 44 +12 +13 1012.0 967.7 +12.2 +16.6
19 16.06 СВ 4 50 км ясно +12.4 +1.1 46 +11 +11 1012.2 967.7
20 16.06 СВ 3-5
{6}
50 км ясно +11.0 +1.4 52 +9 +10 1012.4 967.7
21 16.06 СВ 3-5
{5}
50 км ясно +8.9 +0.7 56 +7 +7 1012.3 967.3
22 16.06 С 1 50 км ясно +7.3 +1.2 65 +7 +7 1012.4 967.2
23 16.06 С 2 50 км ясно +5.9 +2.4 78 +4 +4 1012.7 967.2
00 17.06 С 2-3
{3}
50 км ясно +5.3 +2.0 79 +3 +3 1012.6 967.0
01 17.06 С 2 50 км 1/1 2000 м
[]
+6.4 +1.8 72 +4 +5 1012.1 966.7
02 17.06 С 1-1
{3}
50 км 3/3
[]
+8.5 +1.9 63 +8 +9 1011.4 966.3
03 17.06 СВ 1-2
{3}
50 км 5/5
[]
+9.6 +2.1 59 +9 +10 1010.9 966.1
04 17.06 С 2 45 км 3/3
[]
+10.5 +1.8 55 +9 +11 1010.5 965.8
05 17.06 СВ 2-3
{4}
50 км ясно +11.3 -0.4 44 +11 +14 1010.2 965.6
06 17.06 С 1-3
{3}
40 км ясно +12.6 -0.1 42 +13 +20 1009.3 964.9 +4.9 +13.5
07 17.06 З 1 45 км ясно +13.3 0.0 40 +14 +23 1008.9 964.7
08 17.06 Ю 1 40 км ясно +14.8 -1.1 34 +16 +26 1008.5 964.5
09 17.06 СВ 2-3
{3}
40 км 1/1 2000 м
[]
+15.8 -1.1 31 +16 +25 1007.8 964.0
10 17.06 В 1 50 км ясно +17.3 +0.6 32 +18 +31 опасность
простуды
1007.1 963.6
11 17.06 ЮВ 2 45 км 3/3 2000 м
[]
+16.8 +0.4 33 +17 +25 1007.1 963.5
12 17.06 СВ 2-4
{6}
35 км 1/1
[]
+18.3 +0.8 31 +19 +28 1006.8 963.4
13 17.06 СВ 3 40 км 1/1
[]
+18.9 +1.2 31 +19 +26 1006.4 963.2
14 17.06 С 3-6
{6}
45 км 1/0
[]
+18.8 +1.6 32 +19 +25 1006.3 963.1
15 17.06 С 3-5
{7}
45 км ясно +18.8 +1.4 31 +19 +24 1006.3 963.0
16 17.06 С 1 50 км 1/1 2000 м
[]
+18.1 +1.7 33 +19 +23 1006.1 962.8
17 17.06 СВ 4 50 км 9/9 2000 м
[]
+17.0 +1.0 34 +17 +17 1006.2 962.7
18 17.06 СВ 6-8
{10}
50 км ясно +15.2 0.0 35 +14 +14 1007.0 963.1 +12.6 +19.4
19 17.06 С 6-10
{10}
50 км 5/4 2000 м
[]
+13.6 -0.5 38 +12 +12 1007.5 963.4
20 17.06 СВ 6-8
{10}
50 км 9/0 2000 м
[]
+12.1 -0.7 41 +10 +10 1008.3 963.9
21 17.06 СВ 4-6
{7}
50 км 10/10 2000 м
[]
+10.8 +1.4 52 +9 +9 1008.9 964.3
22 17.06 СВ 4 50 км 9/9 2000 м
[]
+10.0 +0.7 52 +8 +8 1009.1 964.4
23 17.06 СВ 3 50 км 9/9 2000 м
[]
+9.1 +1.5 59 +7 +7 1009.7 964.8
00 18.06 СВ 3-6
{6}
50 км 6/6 2000 м
[]
+7.3 +1.5 67 +5 +5 1010.0 964.8
01 18.06 С 2-5
{6}
45 км 8/8 2000 м
[]
+7.4 +1.4 66 +6 +6 1010.1 965.0
02 18.06 В 3 50 км 9/9 2000 м
[]
+7.9 +0.5 59 +6 +6 1010.0 964.9
03 18.06 СВ 2-4
{5}
50 км 10/10 2000 м
[]
+7.8 +0.7 61 +6 +6 1010.1 965.0
04 18.06 СВ 2 50 км 10/10 2000 м
[]
+8.4 +0.9 59 +7 +7 1010.0 965.0
05 18.06 СВ 1 45 км 10/10 2000 м
[]
+8.6 +1.2 60 +8 +8 1009.9 964.9
06 18.06 В 2-4
{4}
35 км 3/3 2000 м
[]
+10.9 +1.0 50 +10 +14 1009.3 964.7 +6.3 +15.2
07 18.06 В 2-3
{5}
50 км 9/9 2000 м
[]
+11.3 0.0 46 +11 +11 1009.1 964.6
08 18.06 ЮВ 3-5
{5}
50 км 9/0 1500 м
[]
+11.7 +1.6 50 +10 +11 1008.9 964.5
09 18.06 ЮВ 3-4
{4}
35 км слаб. морось 10/10 1500 м
[]
+11.5 +0.7 47 +10 +10 1008.8 964.4
10 18.06 ЮВ 2 45 км слаб. ливневой дождь 10/10 1500 м
[]
+12.2 +2.3 51 +12 +12 1008.6 964.3
11 18.06 ЮВ 2-4
{4}
40 км 9/9 1500 м
[]
+13.4 +0.1 40 +13 +14 1007.9 963.8
12 18.06 Ю 3-4
{4}
45 км морось 10/10 1000 м
[]
+12.8 +2.3 49 +12 +12 1007.9 963.7
13 18.06 Ю 1-3
{4}
35 км слаб. ливневой дождь 10/0 1500 м
[]
+12.5 +3.6 55 +13 +13 1007.8 963.5
14 18.06 С 1 30 км морось 10/10 1500 м
[]
+11.6 +5.4 66 +12 +12 1007.8 963.4
15 18.06 С 2-3
{3}
11 км дождь 10/10 1000 м
[]
+9.7 +7.1 84 +8 +8 1007.7 963.0 0.3
16 18.06 С 4-6
{6}
30 км слаб. дождь 10/10 1000 м
[]
+9.4 +8.2 92 +6 +6 1007.3 962.6 0.5
17 18.06 СВ 3-5
{6}
50 км в посл. час дождь 10/0 1000 м
[]
+9.0 +7.0 87 +6 +6 1006.8 962.1
18 18.06 С 1-2
{4}
4900 м дождь 10/10 600 м
[]
+8.5 +7.5 93 +8 +8 1006.9 962.0 +8.4 +13.5 2
19 18.06 СВ 2 10 км дождь 10/10 1000 м
[]
+8.4 +7.1 92 +6 +6 1006.3 961.5
20 18.06 СЗ 1 30 км слаб. дождь 10/10 1000 м
[]
+7.9 +7.0 94 +7 +7 1006.3 961.4
21 18.06 СЗ 1-2
{3}
10 км дождь 10/10 1000 м
[]
+7.7 +7.3 97 +7 +7 1006.4 961.5 0.9
22 18.06 СЗ 2 11 км дождь 10/10 1000 м
[]
+7.4 +7.2 99 +5 +5 1006.5 961.5
23 18.06 СЗ 2 11 км слаб. дождь 10/10 600 м
[]
+7.3 +7.2 99 +5 +5 1006.3 961.3
00 19.06 СЗ 2-3
{3}
23 км слаб. дождь 10/10 1000 м
[]
+7.0 +6.9 99 +5 +5 1006.1 961.0 2
01 19.06 С 2 40 км слаб. морось 10/10 1000 м
[]
+7.0 +6.9 99 +5 +5 1006.1 961.0
02 19.06 СЗ 2 50 км в посл. час морось 9/8 100 м
[]
+7.2 +7.1 99 +5 +5 1006.1 961.1
03 19.06 СЗ 2-2
{3}
28 км 10/10 200 м
[]
+7.7 +7.2 97 +5 +5 1006.3 961.3
04 19.06 СЗ 3 50 км в посл. час морось 10/10 300 м
[]
+8.1 +7.6 97 +5 +5 1006.3 961.5
05 19.06 СВ 2 45 км в посл. час морось 9/9 200 м
[]
+8.8 +7.8 93 +7 +7 1006.5 961.7
06 19.06 С 3-4
{5}
50 км 9/9 300 м
[]
+9.1 +7.0 87 +7 +7 1006.5 961.8 +6.9 +9.9 10
07 19.06 СЗ 1-3
{4}
40 км слаб. ливневой дождь 10/0 300 м
[]
+8.4 +6.7 89 +8 +8 1007.1 962.2
08 19.06 С 2-4
{4}
45 км слаб. ливневой дождь 10/0 300 м
[]
+9.2 +7.2 87 +7 +7 1007.2 962.5

 

Местоположение метеостанции Наккала (Финляндия): широта 68.60 долгота 23.58 высота над уровнем моря 374 м.

В архиве по умолчанию представлена погода в Наккала за последнюю неделю. Архивные данные за месяц целиком и за предыдущие месяцы, начиная с января 2011 года, Вы можете получить, выбрав интересующий диапазон дат из раскрывающегося списка и нажав кнопку "Ввод!".


*Определитесь, кто Вы:
робот инопланетянин человек

Внимание! Время в таблицах - всемирное. Для получения местного времени необходимо прибавить поправку, которая равна 1 ч.

Смотрите также архив погоды в соседних городах и на ближайших метеорологических станциях:

Погода в Каресуандо (Швеция) (49 км)
Погода в Кёутукейну (Норвегия) (50 км)
Погода в Муонио Лаукукеро (Финляндия) (63 км)
Погода в Муонио Аламуонио (Финляндия) (68 км)
Погода в Киттиля Ломполонвуома (Финляндия) (72 км)
Погода в Киттила Маторова (Финляндия) (72 км)
Погода в Киттила Кенттарова (Финляндия) (73 км)
Погода в Муонио Саммалтунтури (Финляндия) (74 км)
Погода в Наймакке (Швеция) (84 км)
Погода в Суовддатмохкки (Норвегия) (92 км)

Пояснения к столбцам:

Ветер - указаны скорость ветра в м/с - средняя за 10 мин, порывы в срок и между сроками (в фигурных скобках) и направление, откуда дует ветер: С - северный, СВ - северо-восточный, В - восточный, ЮВ - юго-восточный, Ю - южный, ЮЗ - юго-западный, З - западный, СЗ - северо-западный.
Видимость - горизонтальная дальность видимости в метрах или километрах. При видимости от 1 до 10 км при отсутствии осадков обычно наблюдается дымка, при ухудшении видимости до 1 км и менее - туман. В сухую погоду видимость может ухудшаться дымом, пылью или мглою.
Явления - указаны атмосферные явления, наблюдавшиеся в срок или в последний час перед сроком; фигурными скобками обозначены явления, наблюдавшиеся между сроками (за 1-3 часа до срока); квадратными скобками обозначены град или гололедные отложения с указанием их диаметра в мм.
Облачность - указаны через наклонную черту общая и нижняя облачность в баллах и высота нижней границы облаков в метрах; квадратными скобками обозначены формы облаков: Ci - перистые, Cs - перисто-слоистые, Cc - перисто-кучевые, Ac - высококучевые, As - высокослоистые, Sc - слоисто-кучевые, Ns - слоисто-дождевые, Cu - кучевые, Cb - кучево-дождевые. Подробнее классификацию облаков см. в Атласе облаков (PDF).
T - Температура воздуха - температура, измеренная на высоте 2 м над землей.
Td - Температура точки росы - температура, при понижении до которой содержащийся в воздухе водяной пар достигнет насыщения.
f - Относительная влажность воздуха - влажноcть воздуха, измеренная на высоте 2 м над землей.
Te - Эффективная температура - температура, которую ощущает одетый по сезону человек в тени. Характеристика душности погоды. При расчете учитывается влияние влажности воздуха и скорости ветра на теплоощущения человека.
Tes - Эффективная температура на солнце - температура, которую ощущает человек, с поправкой на солнечный нагрев. Характеристика знойности погоды. Зависит от высоты солнца над горизонтом, облачности и скорости ветра. Ночью, в пасмурную погоду, а также при ветре 12 м/с и более поправка равна нулю.
P - Атмосферное давление - приведенное к уровню моря атмосферное давление.
Po - Атмосферное давление - измеренное на уровне метеостанции атмосферное давление.
Tmin - Минимальная температура - минимум температуры воздуха на высоте 2 м над землей.
Tmax - Максимальная температура - максимум температуры воздуха на высоте 2 м над землей.
R - Количество осадков - Количество выпавших осадков за период времени, мм. При наведении курсора мыши на число - период времени, за который выпало указанное количество осадков.
R24 - Количество осадков - Количество выпавших осадков за 24 часа, мм.
S - Снежный покров - Высота снежного покрова, см. При наведении курсора мыши на число - состояние снежного покрова и степень покрытия местности в баллах.